TDRS 6                  
1 22314U 93003B   19261.36962814 -.00000291  00000-0  00000+0 0  9997
2 22314  14.0820  16.2491 0000865   0.8131  67.2035  1.00273409 97672
IUS R/B(1)              
1 22315U 93003C   19260.93850551  .00004030  00000-0  46140-3 0  9997
2 22315  26.7231 169.8325 6329289  78.2011 342.1697  3.58465542288695
IUS R/B(2)              
1 22316U 93003D   19261.38982262  .00000026  00000-0  00000+0 0  9995
2 22316  13.2666   1.1105 0068332  61.3767 311.2838  1.00100325102517